Regional Weather Roundup
Issued by NWS

Home | Current Version | Previous Version | Graphics & Text | Print | Product List | Glossary On
Versions: 1 2 3 4 5 6 7 8 9 10 11 12 13 14 15 16 17 18 19 20 21 22 23 24 25 26 27 28 29 30 31 32 33 34 35 36 37 38 39 40 41 42 43 44 45 46 47 48 49 50
234
ASUS43 KMPX 231810
RWRMN
WEATHER ROUNDUP FOR MINNESOTA
NATIONAL WEATHER SERVICE TWIN CITIES/CHANHASSEN MN
1200 PM CST FRI FEB 23 2018


NOTE: "FAIR" INDICATES FEW OR NO CLOUDS BELOW 12,000 FEET WITH NO
SIGNIFICANT WEATHER AND/OR OBSTRUCTIONS TO VISIBILITY. N/A MEANS
CURRENT SKY AND/OR WEATHER CONDITIONS ARE NOT AVAILABLE.

MNZ060>063-068>070-231900-
   Twin Cities Metro

CITY           SKY/WX    TMP DP  RH WIND       PRES   REMARKS
TWIN CITIES    CLOUDY    29  23  78 W12       30.18R WCI  19
6HR MIN TEMP:  26; 6HR MAX TEMP:  29;

ST PAUL        CLOUDY    29  22  75 W9        30.19R WCI  20
CRYSTAL        CLOUDY    28  19  69 W12       30.17R WCI  18
BLAINE         CLOUDY    30  21  69 W12       30.17R WCI  21
LAKEVILLE      CLOUDY    27  21  80 W8G16     30.19R WCI  18
EDEN PRAIRIE   CLOUDY    29  21  72 W9        30.17R WCI  20
6HR MIN TEMP:  26; 6HR MAX TEMP:  29;

SOUTH ST PAUL  FAIR      29  22  74 W8        30.18R WCI  21
LAKE ELMO      CLOUDY    30  23  74 W10       30.17R WCI  21
$$
MNZ001>005-007-008-013>017-022>024-027-028-231900-
   Northwest Minnesota

CITY           SKY/WX    TMP DP  RH WIND       PRES   REMARKS
BEMIDJI        CLOUDY    24  18  77 W10       30.11S WCI  13
HALLOCK        FAIR      12   7  79 NW8       30.18S WCI   1
ROSEAU         FAIR      16   9  73 W12       30.13R WCI   3
WARROAD        FAIR      19  10  68 SW7       30.11S WCI  10
THIEF RVR FALL FAIR      14   5  67 W10       30.17R WCI   1
CROOKSTON      FAIR      16   7  67 NW10      30.21R WCI   3
FOSSTON        FAIR      21  10  63 SW9       30.16R WCI  11
DETROIT LAKES  FAIR      21  16  79 NW10      30.17S WCI  10
MOORHEAD       FAIR      16   9  73 NW13      30.23S WCI   2
PARK RAPIDS    CLOUDY    25  20  81 NW14      30.11S WCI  13
MAHNOMEN       CLOUDY    17  10  75 W13       30.18R WCI   3
$$
MNZ006-009>011-018-025>026-231900-
   North Central Minnesota

CITY           SKY/WX    TMP DP  RH WIND       PRES   REMARKS
BAUDETTE       PTSUNNY   22  14  71 W6        30.08S WCI  14
FLAG ISLAND    FAIR      19  10  68 NW7       30.08S WCI  10
INTL FALLS     CLOUDY    25  18  74 W7        30.07R WCI  17
6HR MIN TEMP:  19; 6HR MAX TEMP:  26; 6HR PCP:  0.07;

WASKISH        CLOUDY    21  18  86 SW9       30.11R FOG     WCI  11
LONGVILLE      FAIR      27  19  74 W7        30.11R WCI  19
GRAND RAPIDS   FLURRIES  31  21  66 NW8       30.09R WCI  23
CRANE LAKE     FLURRIES  25  19  80 NW6       30.07R WCI  18
ORR            CLOUDY    27  18  69 NW7       30.03R WCI  19
COOK             N/A     27  19  74 NW7       30.05R WCI  19
WALKER         MOCLDY    26  19  74 NW8       30.11R WCI  17
$$
MNZ012-019>021-037-231900-
   Northeast Minnesota

CITY           SKY/WX    TMP DP  RH WIND       PRES   REMARKS
DULUTH         CLOUDY    28  21  75 NW14      30.02R WCI  17
6HR MIN TEMP:  24; 6HR MAX TEMP:  28; 6HR PCP:  0.04;

ELY            LGT SNOW  25  19  80 NW10      30.01S WCI  15
HIBBING        PTSUNNY   25  19  78 NW13      30.05R WCI  14
EVELETH        MIX PCPN  27  19  74 W12       30.04R WCI  16
DULUTH HARBOR  SNOW      30  25  80 W10       30.08R VSB 1/2 WCI  21
TWO HARBORS    CLOUDY    36  25  64 W6        30.01R
SILVER BAY     CLOUDY    34  23  64 NW6       29.99S WCI  29
GRAND MARAIS     N/A     30  26  85 SW13      30.00R WCI  20
G MARAIS ARPRT CLOUDY    25  18  74 NW6       29.94R WCI  18
$$
MNZ029>031-032-039>041-046>048-054>057-064-231900-
   West Central Minnesota

CITY           SKY/WX    TMP DP  RH WIND       PRES   REMARKS
FERGUS FALLS   CLOUDY    18  14  86 NW10      30.22R WCI   6
WHEATON        LGT SNOW  19  12  73 W13       30.25S VSB 1   WCI   7
MORRIS         FLURRIES  21  18  86 NW17      30.20S WCI   7
ALEXANDRIA     FAIR      22  17  81 W13       30.17R WCI  10
ELBOW LAKE     CLOUDY    18  15  88 NW12      30.21R WCI   6
WADENA         FAIR      25  18  74 NW14      30.14R WCI  13
GLENWOOD       LGT SNOW  23  18  80 W16       30.17S WCI  10
APPLETON       MOSUNNY   23  18  80 NW13      30.23S WCI  11
BENSON         CLOUDY    23  18  80 N16       30.23R WCI  10
ORTONVILLE     SUNNY     25  18  74 NW12      30.23R WCI  14
MADISON        SUNNY     27  21  80 NW14      30.24R WCI  15
WILLMAR        FAIR      23  19  86 NW14      30.22R WCI  11
$$
MNZ033>034-036-042>043-049>051-058-059-231900-
   Central Minnesota

CITY           SKY/WX    TMP DP  RH WIND       PRES   REMARKS
ST CLOUD       FAIR      27  20  75 NW12      30.15R WCI  17
6HR MIN TEMP:  19; 6HR MAX TEMP:  27;

SAUK CENTRE    FAIR      26  19  77 W13       30.16R WCI  15
PAYNESVILLE    FAIR      27  21  77 NW10      30.18R WCI  17
AITKIN         FAIR      27  19  74 W5        30.09R WCI  21
PINE RIVER     FAIR      27  19  74 NW5       30.14S WCI  21
BRAINERD       MIX PCPN  28  19  69 W10       30.12R WCI  19
STAPLES        FAIR      28  19  69 W9        30.13S WCI  20
LONG PRAIRIE   FAIR      28  21  74 W10       30.15R WCI  19
LITTLE FALLS   FAIR      28  16  59 W10       30.15R WCI  19
LITCHFIELD     FAIR      28  21  74 W9        30.19R WCI  20
BUFFALO        FAIR      29  19  67 W9        30.19R WCI  21
MAPLE LAKE     FAIR      31  21  67 W7        30.18R WCI  24
HUTCHINSON     FAIR      26  20  78 W10       30.20R WCI  16
$$
MNZ037-044-045-052-053-231900-
   East Central Minnesota

CITY           SKY/WX    TMP DP  RH WIND       PRES   REMARKS
PRINCETON      FAIR      32  21  64 W10       30.16R WCI  24
CAMBRIDGE        N/A     30  19  64 W6        30.14R WCI  24
RUSH CITY      CLOUDY    32  22  66 W7        30.13R WCI  26
MOOSE LAKE     CLOUDY    30  21  69 NW9       30.07R WCI  22
HINCKLEY       CLOUDY    32  23  69 W9        30.11R WCI  24
CLOQUET        CLOUDY    27  19  74 NW10G17   30.05R WCI  17
MCGREGOR       PTSUNNY   30  21  69 NW12      30.09R WCI  21
$$
MNZ071>073-080-081-089-090-097-098-231900-
   Southwest Minnesota

CITY           SKY/WX    TMP DP  RH WIND       PRES   REMARKS
MONTEVIDEO     PTSUNNY   27  21  80 N10       30.23R WCI  17
GRANITE FALLS  CLOUDY    26  22  82 NW15      30.25R WCI  14
CANBY          MOSUNNY   27  20  77 NW13      30.25R WCI  16
MARSHALL       MOSUNNY   25  19  78 NW12      30.24R WCI  14
REDWOOD FALLS  CLOUDY    22  18  85 W9        30.24R WCI  12
OLIVIA         CLOUDY    23  19  86 NW12      30.21R WCI  12
PIPESTONE      PTSUNNY   23  19  86 NW8       30.22R WCI  14
WORTHINGTON    PTSUNNY   26  20  77 W12       30.24R WCI  16
JACKSON        MOSUNNY   25  19  80 W12       30.23R WCI  14
TRACY          SUNNY     25  20  83 NW12      30.24R WCI  14
SLAYTON        SUNNY     25  20  82 W8        30.23R WCI  16
$$
MNZ065>067-074>077-082>085-091>093-231900-
   South Central Minnesota

CITY           SKY/WX    TMP DP  RH WIND       PRES   REMARKS
MANKATO        CLOUDY    23  19  85 W10       30.23R FOG     WCI  12
NEW ULM        SUNNY     21  18  86 W10       30.23R FOG     WCI  10
ST JAMES       SUNNY     25  19  80 W14       30.25R WCI  13
FAIRMONT       FLURRIES  27  20  75 NW17      30.23S WCI  14
GLENCOE        FAIR      26  21  82 W7        30.20R WCI  18
FARIBAULT      FAIR      25  19  80 SW10      30.21R HAZE    WCI  15
OWATONNA       FAIR      23  19  86 W12       30.20R FOG     WCI  12
WASECA         CLOUDY    23  19  86 W12       30.23R FOG     WCI  12
ALBERT LEA     CLOUDY    21  18  86 CALM      30.21R
$$
MNZ078>079-086>088-094>096-231900-
   Southeast Minnesota

CITY           SKY/WX    TMP DP  RH WIND       PRES   REMARKS
ROCHESTER      CLOUDY    23  21  92 W16       30.18R FOG     WCI  10
6HR MIN TEMP:  22; 6HR MAX TEMP:  30;

RED WING       CLOUDY    28  21  74 W7        30.18R WCI  21
STANTON        CLOUDY    28  22  79 W9        30.18R WCI  19
DODGE CENTER   CLOUDY    21  19  93 W12       30.18S FOG     WCI   9
WINONA         CLOUDY    32  25  74 NW12      30.18R WCI  23
AUSTIN         CLOUDY    21  18  86 W10       30.20R WCI  10
PRESTON        PTSUNNY   26  22  87 W12       30.18S WCI  15
$$
ABBREVIATIONS USED IN REMARKS
   TC - TEMPERATURES IN CELSIUS
  WCI - WIND CHILL INDEX
   HX - HEAT INDEX
  VSB - VISIBILITY
$$




USA.gov is the U.S. government's official web portal to all federal, state and local government web resources and services.